When you browse on this site, cookies collect data to enhance your experience and personalize the content and advertising you see.
Visit our Privacy Policy to learn more. By continuing to use the site, you agree to this use of cookies and data.
  • en France
  • Liste des pays
  • À 7 jours
  • Température de l'eau
  • Carte météo
  • Widgets météo
  • user-avatar
    Se connecter

    Météo par heure à Bremen

    Ce jour, 23 Septembre, Lundi

    Heure Température Précipitation Vent Pression Humidité
    00:00 +14°C° 0 mm 3 m/s 756 mmHg 74%
    01:00 +15°C° 0 mm 2 m/s 756 mmHg 74%
    02:00 +15°C° 0 mm 2 m/s 756 mmHg 76%
    03:00 +14°C° 0 mm 2 m/s 756 mmHg 78%
    04:00 +14°C° 0 mm 2 m/s 756 mmHg 80%
    05:00 +14°C° 0 mm 2 m/s 757 mmHg 82%
    06:00 +14°C° 0 mm 1 m/s 757 mmHg 83%
    07:00 +15°C° 0 mm 1 m/s 757 mmHg 85%
    08:00 +15°C° 0 mm 2 m/s 758 mmHg 84%
    09:00 +16°C° 0 mm 2 m/s 758 mmHg 83%
    10:00 +17°C° 0 mm 3 m/s 758 mmHg 82%
    11:00 +17°C° 0 mm 3 m/s 759 mmHg 83%
    12:00 +17°C° 0 mm 3 m/s 759 mmHg 85%
    13:00 +17°C° 0 mm 3 m/s 759 mmHg 86%
    14:00 +17°C° 0 mm 3 m/s 759 mmHg 86%
    15:00 +17°C° 0 mm 3 m/s 759 mmHg 87%
    16:00 +17°C° 0 mm 3 m/s 759 mmHg 87%
    17:00 +16°C° 0.1 mm 2 m/s 759 mmHg 89%
    18:00 +16°C° 0.1 mm 2 m/s 759 mmHg 91%
    19:00 +15°C° 0.1 mm 1 m/s 760 mmHg 93%
    20:00 +15°C° 0 mm 1 m/s 760 mmHg 94%
    21:00 +14°C° 0 mm 1 m/s 760 mmHg 94%
    22:00 +14°C° 0 mm 2 m/s 760 mmHg 94%
    23:00 +14°C° 0 mm 2 m/s 760 mmHg 95%

    Demain, 24 Septembre, Mardi

    Heure Température Précipitation Vent Pression Humidité
    00:00 +13°C° 0 mm 2 m/s 760 mmHg 95%
    01:00 +13°C° 0 mm 2 m/s 760 mmHg 96%
    02:00 +13°C° 0 mm 2 m/s 760 mmHg 96%
    03:00 +12°C° 0 mm 2 m/s 760 mmHg 95%
    04:00 +12°C° 0 mm 2 m/s 759 mmHg 95%
    05:00 +12°C° 0 mm 2 m/s 759 mmHg 95%
    06:00 +12°C° 0 mm 2 m/s 759 mmHg 94%
    07:00 +12°C° 0 mm 2 m/s 759 mmHg 93%
    08:00 +14°C° 0 mm 2 m/s 758 mmHg 87%
    09:00 +16°C° 0 mm 3 m/s 758 mmHg 81%
    10:00 +18°C° 0 mm 3 m/s 758 mmHg 75%
    11:00 +18°C° 0 mm 3 m/s 758 mmHg 70%
    12:00 +19°C° 0 mm 3 m/s 757 mmHg 65%
    13:00 +20°C° 0 mm 3 m/s 757 mmHg 60%
    14:00 +20°C° 0 mm 3 m/s 756 mmHg 60%
    15:00 +20°C° 0 mm 3 m/s 756 mmHg 60%
    16:00 +20°C° 0 mm 3 m/s 755 mmHg 60%
    17:00 +19°C° 0 mm 3 m/s 755 mmHg 64%
    18:00 +18°C° 0 mm 2 m/s 755 mmHg 69%
    19:00 +16°C° 0 mm 2 m/s 754 mmHg 73%
    20:00 +16°C° 0.1 mm 2 m/s 754 mmHg 75%
    21:00 +16°C° 0.1 mm 2 m/s 754 mmHg 77%
    22:00 +16°C° 0.1 mm 2 m/s 754 mmHg 79%
    23:00 +15°C° 0.2 mm 2 m/s 753 mmHg 84%

    Après-demain, 25 Septembre, Mercredi

    Heure Température Précipitation Vent Pression Humidité
    00:00 +15°C° 0.2 mm 2 m/s 753 mmHg 88%
    01:00 +13°C° 0.2 mm 3 m/s 752 mmHg 92%
    02:00 +13°C° 0.7 mm 3 m/s 752 mmHg 94%
    03:00 +14°C° 0.7 mm 2 m/s 752 mmHg 95%
    04:00 +14°C° 0.7 mm 2 m/s 752 mmHg 97%
    05:00 +13°C° 1.5 mm 3 m/s 752 mmHg 97%
    06:00 +13°C° 1.5 mm 3 m/s 752 mmHg 96%
    07:00 +13°C° 1.5 mm 3 m/s 752 mmHg 96%
    08:00 +14°C° 0.3 mm 3 m/s 752 mmHg 93%
    09:00 +14°C° 0.3 mm 3 m/s 752 mmHg 90%
    10:00 +15°C° 0.3 mm 4 m/s 753 mmHg 87%
    11:00 +15°C° 0.3 mm 4 m/s 753 mmHg 85%
    12:00 +17°C° 0.3 mm 4 m/s 753 mmHg 82%
    13:00 +17°C° 0.3 mm 4 m/s 753 mmHg 80%
    14:00 +17°C° 0.2 mm 4 m/s 753 mmHg 79%
    15:00 +18°C° 0.2 mm 3 m/s 753 mmHg 78%
    16:00 +18°C° 0.2 mm 3 m/s 753 mmHg 78%
    17:00 +17°C° 0.2 mm 2 m/s 753 mmHg 81%
    18:00 +16°C° 0.2 mm 2 m/s 753 mmHg 85%
    19:00 +15°C° 0.2 mm 2 m/s 753 mmHg 89%
    20:00 +14°C° 0 mm 2 m/s 754 mmHg 91%
    21:00 +13°C° 0 mm 2 m/s 754 mmHg 93%
    22:00 +12°C° 0 mm 3 m/s 754 mmHg 95%
    23:00 +12°C° 0.1 mm 3 m/s 754 mmHg 95%

    26 Septembre, Jeudi

    Heure Température Précipitation Vent Pression Humidité
    00:00 +11°C° 0.1 mm 3 m/s 753 mmHg 96%
    01:00 +11°C° 0.1 mm 3 m/s 753 mmHg 96%
    02:00 +12°C° 0.2 mm 3 m/s 754 mmHg 96%
    03:00 +12°C° 0.2 mm 3 m/s 754 mmHg 97%
    04:00 +13°C° 0.2 mm 3 m/s 754 mmHg 97%
    05:00 +13°C° 0.1 mm 3 m/s 754 mmHg 96%
    06:00 +14°C° 0.1 mm 4 m/s 754 mmHg 96%
    07:00 +14°C° 0.1 mm 4 m/s 754 mmHg 95%
    08:00 +15°C° 0 mm 4 m/s 755 mmHg 91%
    09:00 +15°C° 0 mm 5 m/s 755 mmHg 88%
    10:00 +16°C° 0 mm 5 m/s 756 mmHg 85%
    11:00 +16°C° 0.2 mm 5 m/s 756 mmHg 87%
    12:00 +17°C° 0.2 mm 4 m/s 756 mmHg 89%
    13:00 +15°C° 0.2 mm 4 m/s 756 mmHg 91%
    14:00 +17°C° 0.1 mm 4 m/s 756 mmHg 89%
    15:00 +18°C° 0.1 mm 4 m/s 756 mmHg 88%
    16:00 +18°C° 0.1 mm 4 m/s 755 mmHg 86%
    17:00 +18°C° 0.6 mm 4 m/s 756 mmHg 88%
    18:00 +17°C° 0.6 mm 4 m/s 756 mmHg 91%
    19:00 +15°C° 0.6 mm 4 m/s 756 mmHg 93%
    20:00 +15°C° 0.1 mm 4 m/s 756 mmHg 93%
    21:00 +15°C° 0.1 mm 4 m/s 756 mmHg 92%
    22:00 +15°C° 0.1 mm 4 m/s 756 mmHg 92%
    23:00 +15°C° 0.3 mm 4 m/s 756 mmHg 92%

    27 Septembre, Vendredi

    Heure Température Précipitation Vent Pression Humidité
    00:00 +15°C° 0.3 mm 4 m/s 756 mmHg 92%
    01:00 +15°C° 0.3 mm 5 m/s 756 mmHg 93%
    02:00 +14°C° 0.1 mm 4 m/s 756 mmHg 93%
    03:00 +14°C° 0.1 mm 4 m/s 755 mmHg 93%
    04:00 +14°C° 0.1 mm 4 m/s 755 mmHg 94%
    05:00 +14°C° 0.1 mm 4 m/s 755 mmHg 94%
    06:00 +14°C° 0.1 mm 4 m/s 755 mmHg 94%
    07:00 +14°C° 0.1 mm 4 m/s 755 mmHg 94%
    08:00 +14°C° 1.1 mm 4 m/s 755 mmHg 94%
    09:00 +14°C° 1.1 mm 4 m/s 755 mmHg 94%
    10:00 +14°C° 1.1 mm 4 m/s 755 mmHg 94%
    11:00 +15°C° 0.9 mm 4 m/s 754 mmHg 87%
    12:00 +16°C° 0.9 mm 5 m/s 754 mmHg 81%
    13:00 +17°C° 0.9 mm 5 m/s 754 mmHg 74%
    14:00 +17°C° 0.2 mm 5 m/s 754 mmHg 73%
    15:00 +17°C° 0.2 mm 5 m/s 754 mmHg 72%
    16:00 +17°C° 0.2 mm 5 m/s 754 mmHg 72%
    17:00 +17°C° 0 mm 4 m/s 754 mmHg 75%
    18:00 +14°C° 0 mm 4 m/s 754 mmHg 79%
    19:00 +13°C° 0 mm 4 m/s 754 mmHg 83%
    20:00 +13°C° 0 mm 4 m/s 754 mmHg 83%
    21:00 +13°C° 0 mm 4 m/s 754 mmHg 83%
    22:00 +13°C° 0 mm 4 m/s 754 mmHg 83%
    23:00 +12°C° 0 mm 4 m/s 754 mmHg 83%

    28 Septembre, Samedi

    Heure Température Précipitation Vent Pression Humidité
    00:00 +12°C° 0 mm 4 m/s 754 mmHg 83%
    01:00 +12°C° 0 mm 4 m/s 754 mmHg 84%
    02:00 +12°C° 0 mm 5 m/s 754 mmHg 83%
    03:00 +12°C° 0 mm 5 m/s 754 mmHg 82%
    04:00 +12°C° 0 mm 5 m/s 754 mmHg 81%
    05:00 +12°C° 0 mm 5 m/s 753 mmHg 80%
    06:00 +11°C° 0 mm 6 m/s 753 mmHg 79%
    07:00 +11°C° 0 mm 6 m/s 753 mmHg 78%
    08:00 +12°C° 0.1 mm 7 m/s 753 mmHg 78%
    09:00 +12°C° 0.1 mm 8 m/s 753 mmHg 78%
    10:00 +13°C° 0.1 mm 8 m/s 753 mmHg 77%
    11:00 +13°C° 0.2 mm 8 m/s 752 mmHg 78%
    12:00 +13°C° 0.2 mm 8 m/s 752 mmHg 79%
    13:00 +13°C° 0.2 mm 8 m/s 752 mmHg 80%
    14:00 +13°C° 0.1 mm 8 m/s 752 mmHg 81%
    15:00 +13°C° 0.1 mm 8 m/s 752 mmHg 81%
    16:00 +13°C° 0.1 mm 8 m/s 752 mmHg 81%
    17:00 +13°C° 0.4 mm 8 m/s 752 mmHg 84%
    18:00 +12°C° 0.4 mm 7 m/s 752 mmHg 87%
    19:00 +11°C° 0.4 mm 6 m/s 752 mmHg 90%
    20:00 +11°C° 0.1 mm 6 m/s 752 mmHg 91%
    21:00 +11°C° 0.1 mm 6 m/s 752 mmHg 91%
    22:00 +11°C° 0.1 mm 6 m/s 752 mmHg 92%
    23:00 +11°C° 0.1 mm 6 m/s 752 mmHg 92%
    Voir plus